Location: Newark
(55.7083°N, 13.1992°E)
Time: 02:42:53
(UTC+00:00)

Transit 4A - Pass Details

Date: 25 February 2020
Orbit: 871 x 973 km, 66.8° (Epoch: 04 April)

Event Time Altitude Azimuth Distance (km) Brightness Sun altitude
Exits shadow 03:56:42 13° 316° (NW) 2,330 9.7 -19.4°
Maximum altitude 04:01:09 30° 13° (NNE) 1,523 9.2 -18.8°
Drops below altitude 10° 04:06:15 10° 73° (ENE) 2,541 11.5 -18.1°
Sets 04:09:05 0° 85° (E) 3,489 12.7 -17.7°
